Weather History for KUZA - January, 2013

Change the Weather History Date:

Thursday, January 10, 2013

  Actual Average Record
Temperature  
Mean Temperature 56 °F -  
Max Temperature 69 °F 47 °F 77 °F (1949)
Min Temperature 44 °F 31 °F 4 °F (1970)
Degree Days  
Heating Degree Days 8    
Growing Degree Days 6 (Base 50)    
Moisture  
Dew Point 47 °F    
Average Humidity 82    
Maximum Humidity 100    
Minimum Humidity 49    
Precipitation  
Precipitation 0.00 in - - ()
Sea Level Pressure  
Sea Level Pressure 30.43 in    
Wind  
Wind Speed 2 mph (ENE)    
Max Wind Speed 8 mph    
Max Gust Speed -    
Visibility 6 miles    
Events Fog , Rain    
Averages and records for this station are not official NWS values.
T = Trace of Precipitation, MM = Missing Value Source: NWS Daily Summary

Daily Weather History Graph

Daily Weather History Graph

Search for Another Location

Airport or City:

Trip Planner

Search our weather history database for the weather conditions in past years. The results will help you decide how hot, cold, wet, or windy it might be!

Date:

Astronomy

Jan. 10, 2013 Rise Set
Actual Time 7:32 AM EST 5:31 PM EST
Civil Twilight 7:04 AM EST 5:59 PM EST
Nautical Twilight 6:33 AM EST 6:30 PM EST
Astronomical Twilight 6:03 AM EST 7:01 PM EST
Moon 6:11 AM EST (1/10) 4:37 PM EST (1/10)
Length of Visible Light 10h 54m
Length of Day
9h 58m
Waning Crescent, 2% of the Moon is Illuminated
Jan 10
Waning Crescent
Jan 11
New
Jan 18
First Quarter
Jan 26
Full
Feb 3
Last Quarter

Hourly Weather History & Observations

Time (EST) Temp. Windchill Dew Point Humidity Pressure Visibility Wind Dir Wind Speed Gust Speed Precip Events Conditions
12:54 AM 51.1 °F - 48.0 °F 89% 30.43 in 9.0 mi Calm Calm - N/A   Clear
1:54 AM 51.1 °F - 48.0 °F 89% 30.43 in 9.0 mi Calm Calm - N/A   Clear
2:54 AM 48.9 °F - 46.9 °F 93% 30.44 in 8.0 mi North 3.5 mph - N/A   Clear
3:54 AM 46.0 °F - 44.1 °F 93% 30.44 in 6.0 mi Calm Calm - N/A   Clear
4:48 AM 46.4 °F - 46.4 °F 100% 30.42 in 1.2 mi Calm Calm - N/A   Clear
4:54 AM 44.1 °F - 44.1 °F 100% 30.43 in 0.5 mi Calm Calm - N/A Fog Fog
5:01 AM 44.1 °F - 44.1 °F 100% 30.43 in 1.0 mi Calm Calm - N/A   Clear
5:11 AM 45.0 °F 43.5 °F 44.1 °F 97% 30.44 in 2.0 mi North 3.5 mph - N/A   Clear
5:40 AM 44.1 °F 42.5 °F 44.1 °F 100% 30.44 in 1.8 mi North 3.5 mph - N/A   Clear
5:50 AM 44.6 °F 42.2 °F 44.6 °F 100% 30.44 in 3.0 mi NNE 4.6 mph - N/A   Clear
5:54 AM 44.1 °F 41.5 °F 44.1 °F 100% 30.44 in 3.0 mi NNE 4.6 mph - N/A   Clear
6:18 AM 44.1 °F 42.5 °F 44.1 °F 100% 30.45 in 1.8 mi North 3.5 mph - N/A   Clear
6:27 AM 46.0 °F - 45.0 °F 96% 30.45 in 2.5 mi Calm Calm - N/A   Clear
6:34 AM 45.0 °F - 45.0 °F 100% 30.45 in 3.0 mi Calm Calm - N/A   Clear
6:54 AM 44.1 °F - 44.1 °F 100% 30.46 in 6.0 mi Calm Calm - N/A   Clear
7:29 AM 44.1 °F 42.5 °F 44.1 °F 100% 30.47 in 1.8 mi NNE 3.5 mph - N/A   Clear
7:33 AM 44.1 °F 42.5 °F 44.1 °F 100% 30.47 in 0.5 mi NNE 3.5 mph - N/A Fog Fog
7:51 AM 44.6 °F - 44.6 °F 100% 30.48 in 1.0 mi Calm Calm - N/A   Clear
7:54 AM 45.0 °F - 45.0 °F 100% 30.48 in 1.0 mi Calm Calm - N/A   Clear
8:18 AM 46.9 °F - 46.9 °F 100% 30.48 in 3.0 mi Calm Calm - N/A   Clear
8:54 AM 53.1 °F - 51.1 °F 93% 30.49 in 5.0 mi Calm Calm - N/A   Clear
9:54 AM 57.0 °F - 51.1 °F 81% 30.50 in 9.0 mi Calm Calm - N/A   Clear
10:54 AM 61.0 °F - 50.0 °F 67% 30.48 in 10.0 mi Variable 4.6 mph - N/A   Clear
11:54 AM 63.0 °F - 50.0 °F 63% 30.46 in 10.0 mi ENE 4.6 mph - N/A   Clear
12:54 PM 66.9 °F - 50.0 °F 54% 30.43 in 10.0 mi Variable 4.6 mph - N/A   Clear
1:54 PM 69.1 °F - 48.9 °F 49% 30.41 in 10.0 mi Variable 3.5 mph - N/A   Clear
2:54 PM 69.1 °F - 50.0 °F 51% 30.40 in 10.0 mi Variable 5.8 mph - N/A   Clear
3:54 PM 69.1 °F - 48.9 °F 49% 30.40 in 10.0 mi ESE 4.6 mph - N/A   Clear
4:54 PM 66.9 °F - 48.0 °F 51% 30.41 in 10.0 mi East 4.6 mph - N/A   Clear
5:54 PM 64.0 °F - 48.9 °F 58% 30.41 in 10.0 mi Calm Calm - N/A   Overcast
6:54 PM 63.0 °F - 48.0 °F 58% 30.42 in 10.0 mi East 4.6 mph - N/A   Overcast
7:54 PM 62.1 °F - 48.0 °F 60% 30.41 in 10.0 mi East 4.6 mph - N/A   Overcast
8:54 PM 62.1 °F - 45.0 °F 53% 30.40 in 10.0 mi East 5.8 mph - N/A   Overcast
9:54 PM 60.1 °F - 44.1 °F 55% 30.39 in 10.0 mi East 5.8 mph - N/A   Scattered Clouds
10:54 PM 59.0 °F - 46.0 °F 62% 30.38 in 9.0 mi ESE 8.1 mph - N/A   Overcast
11:20 PM 55.0 °F - 50.0 °F 83% 30.39 in 2.0 mi Calm Calm - 0.02 in Rain Rain
11:31 PM 54.0 °F - 52.0 °F 93% 30.38 in 7.0 mi East 3.5 mph - 0.02 in Rain Light Rain
11:38 PM 54.0 °F - 52.0 °F 93% 30.38 in 8.0 mi East 3.5 mph - 0.02 in   Overcast